Simultaneous Nadir Overpasses (SNOs) Predictions

Prediction of SNOs between METOP-A and NOAA-19 Satellite Orbit:

Table of predicted SNOs for the next 14.0 days since TLE Epoch: 1/26/2013
Index Date (METOP-A) Time (METOP-A) Lat,Lon (METOP-A) SZA (METOP-A ) Date (NOAA-19) Time (NOAA-19) Lat,Lon (NOAA-19) SZA (NOAA-19 ) Distance(km) Time Diff (sec)
1 01/29/2013 12:22:25 73.36, -12.82 91.34 01/29/2013 12:21:10 73.39, -12.87 91.38 3.76 75
2 01/29/2013 13:13:07 -73.35, 154.49 88.69 01/29/2013 13:12:08 -73.34, 154.50 88.69 1.55 59
3 01/29/2013 14:03:47 73.34, -38.21 91.30 01/29/2013 14:03:14 73.35, -38.30 91.32 3.35 33
4 01/29/2013 14:54:29 -73.28, 129.00 88.77 01/29/2013 14:54:11 -73.30, 129.07 88.75 3.23 18
5 01/29/2013 15:45:09 73.27, -63.71 91.21 01/29/2013 15:45:16 73.26, -63.62 91.21 2.85 7
6 01/29/2013 16:35:51 -73.26, 103.61 88.81 01/29/2013 16:36:15 -73.26, 103.64 88.81 1.07 24
7 01/29/2013 17:26:31 73.24, -89.09 91.18 01/29/2013 17:27:20 73.23, -89.05 91.15 2.46 49
8 01/29/2013 18:17:13 -73.24, 78.22 88.84 01/29/2013 18:18:19 -73.22, 78.21 88.87 1.77 66
9 01/29/2013 19:08:06 72.56,-115.87 90.56 01/29/2013 19:09:12 72.59,-113.18 90.43 89.49 66
10 02/08/2013 12:15:27 73.37, -11.08 88.41 02/08/2013 12:14:15 73.39, -11.10 88.44 2.08 72
11 02/08/2013 13:06:10 -73.34, 156.17 91.64 02/08/2013 13:05:16 -73.35, 156.23 91.62 2.68 54
12 02/08/2013 13:56:49 73.35, -36.46 88.37 02/08/2013 13:56:19 73.35, -36.53 88.38 2.18 30
13 02/08/2013 14:47:32 -73.32, 130.78 91.68 02/08/2013 14:47:20 -73.32, 130.80 91.68 0.62 12
14 02/08/2013 15:38:12 73.29, -61.96 88.29 02/08/2013 15:38:23 73.32, -61.97 88.32 3.65 11
15 02/08/2013 16:28:54 -73.30, 105.40 91.72 02/08/2013 16:29:24 -73.28, 105.36 91.74 2.88 30
16 02/08/2013 17:19:34 73.27, -87.34 88.25 02/08/2013 17:20:27 73.28, -87.40 88.25 2.70 53
17 02/08/2013 18:10:17 -73.23, 79.91 91.80 02/08/2013 18:11:28 -73.24, 79.93 91.81 1.03 71




NCC Satellite Simultaneous Nadir Overpasses (SNOs) Prediction Service
